Weather History for KALB - May, 2013

Change the Weather History Date:

Thursday, May 2, 2013

  Actual Average Record
Temperature  
Mean Temperature 64 °F 54 °F  
Max Temperature 81 °F 65 °F 88 °F (2001)
Min Temperature 46 °F 43 °F 29 °F (1974)
Degree Days  
Heating Degree Days 1 11  
Month to date heating degree days 6 23  
Since 1 July heating degree days 6068 6416  
Cooling Degree Days 0 0  
Month to date cooling degree days 0 0  
Year to date cooling degree days 0 4  
Growing Degree Days 14 (Base 50)    
Moisture  
Dew Point 39 °F    
Average Humidity 51    
Maximum Humidity 80    
Minimum Humidity 21    
Precipitation  
Precipitation 0.00 in 0.10 in 1.29 in (1992)
Month to date precipitation 0.00 0.21  
Year to date precipitation 8.09 11.38  
Snow  
Snow 0.00 in 0.00 in T in (1986)
Month to date snowfall 0.0 0.0  
Since 1 July snowfall 51.4 59.0  
Snow Depth 0.00 in    
Sea Level Pressure  
Sea Level Pressure 30.38 in    
Wind  
Wind Speed 3 mph (South)    
Max Wind Speed 17 mph    
Max Gust Speed 23 mph    
Visibility 10 miles    
Events      
T = Trace of Precipitation, MM = Missing Value Source: NWS Daily Summary

Daily Weather History Graph

Daily Weather History Graph

Search for Another Location

Airport or City:

Trip Planner

Search our weather history database for the weather conditions in past years. The results will help you decide how hot, cold, wet, or windy it might be!

Date:

Astronomy

May. 02, 2013 Rise Set
Actual Time 5:47 AM EDT 7:57 PM EDT
Civil Twilight 5:16 AM EDT 8:28 PM EDT
Nautical Twilight 4:38 AM EDT 9:06 PM EDT
Astronomical Twilight 3:56 AM EDT 9:48 PM EDT
Moon 1:43 AM EDT (5/2) 12:33 PM EDT (5/2)
Length of Visible Light 15h 11m
Length of Day
14h 09m
Waning Gibbous, 48% of the Moon is Illuminated
May 2
Waning Gibbous
May 9
New
May 18
First Quarter
May 25
Full
May 31
Last Quarter

Hourly Weather History & Observations

Time (EDT) Temp. Dew Point Humidity Pressure Visibility Wind Dir Wind Speed Gust Speed Precip Events Conditions
12:51 AM 57.0 °F 39.0 °F 51% 30.43 in 10.0 mi South 9.2 mph 18.4 mph N/A   Clear
1:51 AM 55.9 °F 39.0 °F 53% 30.43 in 10.0 mi SSE 9.2 mph - N/A   Clear
2:51 AM 54.0 °F 39.9 °F 59% 30.42 in 10.0 mi SSE 8.1 mph - N/A   Clear
3:51 AM 53.1 °F 39.9 °F 61% 30.43 in 10.0 mi South 4.6 mph - N/A   Clear
4:51 AM 48.0 °F 39.0 °F 71% 30.42 in 10.0 mi Calm Calm - N/A   Clear
5:51 AM 48.0 °F 39.0 °F 71% 30.44 in 10.0 mi Calm Calm - N/A   Clear
6:51 AM 48.9 °F 42.1 °F 77% 30.45 in 10.0 mi Calm Calm - N/A   Clear
7:51 AM 55.0 °F 42.1 °F 62% 30.46 in 10.0 mi Calm Calm - N/A   Clear
8:51 AM 57.9 °F 42.1 °F 56% 30.46 in 10.0 mi Calm Calm - N/A   Clear
9:51 AM 62.1 °F 42.1 °F 48% 30.45 in 10.0 mi Calm Calm - N/A   Clear
10:51 AM 66.0 °F 41.0 °F 40% 30.44 in 10.0 mi Calm Calm - N/A   Clear
11:51 AM 71.1 °F 35.1 °F 27% 30.42 in 10.0 mi West 3.5 mph - N/A   Clear
12:51 PM 73.9 °F 37.0 °F 26% 30.39 in 10.0 mi Calm Calm - N/A   Partly Cloudy
1:51 PM 77.0 °F 35.1 °F 22% 30.37 in 10.0 mi Calm Calm - N/A   Partly Cloudy
2:51 PM 78.1 °F 37.0 °F 23% 30.34 in 10.0 mi Calm Calm - N/A   Scattered Clouds
3:51 PM 79.0 °F 37.0 °F 22% 30.31 in 10.0 mi Calm Calm - N/A   Scattered Clouds
4:51 PM 80.1 °F 37.9 °F 22% 30.29 in 10.0 mi South 3.5 mph - N/A   Scattered Clouds
5:51 PM 80.1 °F 37.0 °F 21% 30.28 in 10.0 mi NNW 3.5 mph - N/A   Scattered Clouds
6:51 PM 80.1 °F 37.9 °F 22% 30.27 in 10.0 mi Calm Calm - N/A   Scattered Clouds
7:51 PM 75.9 °F 39.9 °F 27% 30.26 in 10.0 mi Calm Calm - N/A   Mostly Cloudy
8:51 PM 73.0 °F 41.0 °F 31% 30.27 in 10.0 mi Calm Calm - N/A   Mostly Cloudy
9:51 PM 69.1 °F 37.9 °F 32% 30.31 in 10.0 mi ESE 10.4 mph 20.7 mph N/A   Mostly Cloudy
10:51 PM 66.0 °F 36.0 °F 33% 30.35 in 10.0 mi South 8.1 mph 19.6 mph N/A   Mostly Cloudy
11:51 PM 62.1 °F 35.1 °F 37% 30.38 in 10.0 mi SSE 13.8 mph - N/A   Overcast